Regional Weather Roundup
Issued by NWS Newport/Morehead, NC

Current Version | Previous Version | Graphics & Text | Print | Product List | Glossary Off
Versions: 1 2 3 4 5 6 7 8 9 10 11 12 13 14 15 16 17 18 19 20 21 22 23 24 25 26 27 28 29 30 31 32 33 34 35 36 37 38 39 40 41 42 43 44 45 46 47 48 49 50

000
ASUS42 KMHX 231710
RWRMHX
WEATHER ROUNDUP FOR EASTERN NORTH CAROLINA
NATIONAL WEATHER SERVICE NEWPORT/MOREHEAD CITY NC
100 PM EDT THU OCT 23 2014

NOTE: "FAIR" INDICATES FEW OR NO CLOUDS BELOW 12,000 FEET
WITH NO SIGNIFICANT WEATHER AND/OR OBSTRUCTIONS TO VISIBILITY

NCZ015>017-031-032-045>047-102-103-231800-
NORTH COAST

CITY           SKY/WX    TMP DP  RH WIND       PRES   REMARKS
EDENTON        SUNNY     64  45  50 NW14G21   29.90F
ELIZABETH CITY SUNNY     65  46  50 W14G25    29.87F
KITTY HAWK     MOSUNNY   61  47  59 W12G20    29.86F
MANTEO         SUNNY     61  46  59 NW16      29.88F

$$

NCZ045>047-081-094-103-104-231800-
CENTRAL COAST

CITY           SKY/WX    TMP DP  RH WIND       PRES   REMARKS
FRISCO         SUNNY     61  47  59 NW12G23   29.90F
SWANQUARTER      N/A     64 N/A N/A NW16      29.85F

$$

NCZ095-097-098-100-101-231800-
SOUTHERN COAST

CITY           SKY/WX    TMP DP  RH WIND       PRES   REMARKS
BEAUFORT       SUNNY     66  47  50 W13       29.93F
CEDAR ISLAND     N/A     63 N/A N/A W12G20    29.94F
JACKSONVILLE   SUNNY     65  44  46 NW12      29.96F
PINEY ISLAND   SUNNY     66  44  45 W14G23    29.92F
WILMINGTON     SUNNY     66  44  45 NW13      29.98F


$$

NCZ011>013-027>030-043-044-078>080-089-090>093-098-231800-
COASTAL PLAIN

CITY           SKY/WX    TMP DP  RH WIND       PRES   REMARKS
AHOSKIE        SUNNY     61  44  52 NW6       29.92F
CLINTON        SUNNY     64  46  52 NW6       30.00F
ELIZABETHTOWN  SUNNY     63  42  45 NW6       30.01F
GOLDSBORO      SUNNY     65  48  52 W5        29.95F
GREENVILLE     SUNNY     64  45  48 NW9G17    29.96F
HAVELOCK       SUNNY     67  45  45 NW13      29.94F
KENANSVILLE    SUNNY     63  43  48 W8        29.99F
KINSTON        SUNNY     66  43  42 NW8       29.96F
NEW BERN       SUNNY     67  45  45 W10       29.95F
RICHLANDS      SUNNY     64  43  45 W5        29.97F
ROCKY MOUNT    SUNNY     66  43  43 NW10      29.95F
WASHINGTON     SUNNY     63  45  51 NW9G17    29.93F
WHITEVILLE     SUNNY     64  43  45 W5        30.00F

$$

AMZ130-135-150-152-154-156-158-170-250-252-270-ANZ085-086-088-633-658-670-231800-
MARINE OBSERVATIONS

STATION/POSITION TIME  TEMP    WIND        PRES    WAVE   SWELL
                       AIR SEA DIR/SP/G            HT/PER HT/PER
                 (UTC) (F)     (DEG/KT/KT) (MB)    (FT/S) (FT/S)
CHESAPEAKE LIGHT 1600   57     320/ 29/ 32 1011.1
64 E VA BEACH    1700   60 68  320/ 25/ 29 1008.7    9/ 7   3/14
DUCK             1700   59 67  300/ 13/ 16 1010.3
2 E DUCK         1700                        N/A     5/10   2/11
10 NE DUCK       1600      69                N/A     6/ 9   2/11
OREGON INLET     1700   59 63  310/ 14/ 18 1011.7
13E OREGON INLT  1700      70                N/A     7/ 8   2/11
HATTERAS CG      1700   60 62  310/ 18/ 21 1012.9
DIAMOND BUOY     1700   61     300/ 19/ 27 1012.6
17 S OCRACOKE    NOT AVBL
CAPE LOOKOUT     1600   61     320/  7/  9 1014.4
BEAUFORT LAB     1700   64 67  300/  6/ 12 1012.9
30 SE NEW RIVER  1600   62 75  320/ 12/ 16 1014.7
5 SE WRIGHTSVLE  1700   60 72  320/ 10/ 12   N/A
225 S CAPE HAT   1552   70 78  310/ 16/ 19 1014.6    8/ 8   5/ 8
41 SE CHARLESTON 1700   62 78  340/  8/ 12 1017.3    3/ 5   3/ 5

$$



USA.gov is the U.S. government's official web portal to all federal, state and local government web resources and services.